Meteo Giornale » Osservazioni meteo Stati Uniti (USA) » Red Wing

ore: 15:55 - Osservazioni Meteo Red Wing
Lat. 44° 35' N Lon. 92° 29' W Alt. 239 metri s.l.m.

nuvoloso

32 °C

Nuvoloso

Temp. 24 Ore

21 °C

32 °C

Nord

0 Km/h

Dew point 21 °C

Umidità 52 %

Visibilità  10 Km

Il sole sorge alle ore 06:31

Il sole tramonta alle ore 19:48

Data e Ora Cielo e Fenomeni T °C DP °C Um. % Pres. hPa Vis. km Vento km/h
Oggi h: 15:55 nuvoloso Nuvoloso 32 21 52 1010 10 N 0
Oggi h: 15:35 sereno Sereno 32 21 52 1010 10 N 5.5
Oggi h: 15:15 sereno Sereno 32 21 52 1010 10 O/SO 9.3
Oggi h: 14:55 sereno Sereno 32 21 52 1010 10 SO 11.1
Oggi h: 14:35 sereno Sereno 31 22 58 1010 10 N 0
Oggi h: 14:15 sereno Sereno 31 22 58 1010 10 N 5.5
Oggi h: 13:55 sereno Sereno 31 22 58 1010 10 N 0
Oggi h: 13:35 sereno Sereno 29 22 66 1010 10 N 0
Oggi h: 13:15 sereno Sereno 29 22 66 1010 10 N 5.5
Oggi h: 12:55 sereno Sereno 30 22 62 1010 10 N 5.5
Oggi h: 12:35 sereno Sereno 29 21 62 1010 10 N 0
Oggi h: 12:15 sereno Sereno 30 21 58 1010 10 O 9.3
Oggi h: 11:55 sereno Sereno 29 21 62 1010 10 O/SO 7.4
Oggi h: 11:35 sereno Sereno 29 21 62 1010 10 N 5.5
Oggi h: 11:15 nuvoloso Nuvoloso 28 21 65 1010 10 NO 7.4
Oggi h: 10:55 sereno Sereno 28 21 65 1010 10 O/NO 11.1
Oggi h: 10:35 sereno Sereno 27 21 69 1009 10 N 5.5
Oggi h: 10:15 sereno Sereno 28 21 65 1009 10 O 9.3
Oggi h: 09:55 sereno Sereno 27 21 69 1009 10 O 7.4
Oggi h: 09:35 sereno Sereno 27 21 69 1009 10 O 11.1
Oggi h: 09:15 sereno Sereno 26 21 73 1009 10 O 7.4
Oggi h: 08:55 sereno Sereno 25 21 78 1009 10 N 0
Oggi h: 08:35 sereno Sereno 24 21 83 1008 10 N 0
Oggi h: 08:15 sereno Sereno 23 20 83 1008 10 N 0
Oggi h: 07:55 sereno Sereno 22 20 88 1008 10 N 0
Oggi h: 07:35 sereno Sereno 22 20 88 1008 10 N 0
Oggi h: 07:15 sereno Sereno 21 19 88 1008 11 N 0
Oggi h: 06:55 sereno Sereno 21 19 88 1008 11 N 5.5
Oggi h: 06:35 sereno Sereno 21 19 88 1008 11 N 0
Oggi h: 06:15 sereno Sereno 22 19 83 1008 10 N 0
Oggi h: 05:55 sereno Sereno 22 19 83 1007 10 N 5.5
Oggi h: 05:35 sereno Sereno 22 19 83 1007 10 N 5.5
Oggi h: 05:15 sereno Sereno 22 19 83 1007 10 N 0
Oggi h: 04:55 sereno Sereno 22 19 83 1008 10 N 0
Oggi h: 04:35 sereno Sereno 22 19 83 1008 10 N 0
Oggi h: 04:15 sereno Sereno 23 19 78 1007 10 SE 7.4
Oggi h: 03:55 sereno Sereno 23 19 78 1007 10 SE 7.4
Oggi h: 03:35 sereno Sereno 23 19 78 1007 10 SE 7.4
Oggi h: 03:15 sereno Sereno 23 19 78 1007 10 N 5.5
Oggi h: 02:55 sereno Sereno 23 19 78 1007 10 SE 7.4
Oggi h: 02:35 sereno Sereno 23 19 78 1007 10 E/SE 11.1
Oggi h: 02:15 sereno Sereno 23 19 78 1008 10 E 7.4
Oggi h: 01:55 sereno Sereno 23 19 78 1008 10 E/SE 11.1
Oggi h: 01:35 sereno Sereno 23 19 78 1008 10 E/SE 9.3
Oggi h: 01:15 sereno Sereno 23 19 78 1008 10 SE 11.1
Oggi h: 00:55 sereno Sereno 23 19 78 1009 10 SE 13
Oggi h: 00:35 sereno Sereno 23 19 78 1009 10 E/SE 7.4
Oggi h: 00:15 sereno Sereno 23 19 78 1009 10 E/SE 9.3
Ieri h: 23:55 sereno Sereno 23 19 78 1009 10 SE 7.4
Ieri h: 23:35 sereno Sereno 23 18 73 1009 10 E/SE 9.3
Ieri h: 23:15 sereno Sereno 24 18 69 1009 10 SE 9.3
Ieri h: 22:55 sereno Sereno 23 18 73 1009 10 SE 9.3
Ieri h: 22:35 sereno Sereno 23 18 73 1009 10 SE 9.3
Ieri h: 22:15 sereno Sereno 24 18 69 1009 10 SE 11.1
Ieri h: 21:55 sereno Sereno 24 18 69 1009 10 SE 9.3
Ieri h: 21:35 sereno Sereno 24 18 69 1009 10 SE 11.1
Ieri h: 21:15 sereno Sereno 25 18 65 1010 10 S/SE 11.1
Ieri h: 20:55 sereno Sereno 26 18 61 1009 10 SE 11.1
Ieri h: 20:35 sereno Sereno 26 18 61 1009 10 SE 11.1
Ieri h: 20:15 sereno Sereno 26 18 61 1009 10 SE 7.4
Ieri h: 19:55 sereno Sereno 27 18 57 1009 10 N 5.5
Ieri h: 19:35 sereno Sereno 27 19 61 1009 10 S/SE 11.1
Ieri h: 19:15 sereno Sereno 28 18 54 1008 10 SE 11.1
Ieri h: 18:55 sereno Sereno 29 18 51 1009 10 S/SE 9.3
Ieri h: 18:35 sereno Sereno 28 18 54 1008 10 S/SE 7.4
Ieri h: 18:15 sereno Sereno 30 18 48 1008 10 S 13
Ieri h: 17:55 sereno Sereno 31 18 45 1008 10 S/SO 14.8
Ieri h: 17:35 sereno Sereno 31 19 48 1008 10 S 16.7
Ieri h: 17:15 sereno Sereno 31 21 55 1008 10 S/SE 16.7
Ieri h: 16:55 sereno Sereno 31 21 55 1007 10 SE 14.8
Ieri h: 16:35 sereno Sereno 31 20 52 1008 10 E/SE 14.8